Regional Weather Roundup
Issued by NWS

Home | Current Version | Previous Version | Text Only | Print | Product List | Glossary Off
Versions: 1 2 3 4 5 6 7 8 9 10 11 12 13 14 15 16 17 18 19 20 21 22 23 24 25 26 27 28 29 30 31 32 33 34 35 36 37 38 39 40 41 42 43 44 45 46 47 48 49 50

000
ASUS43 KFSD 290002
RWRSD

WEATHER ROUNDUP FOR SOUTH DAKOTA
NATIONAL WEATHER SERVICE SIOUX FALLS SD
700 PM CDT MON JUL 28 2014

NOTE: "FAIR" INDICATES FEW OR NO CLOUDS BELOW 12,000 FEET WITH NO
SIGNIFICANT WEATHER AND/OR OBSTRUCTIONS TO VISIBILITY.


SDZ001>005-009-010-012>017-290100-
NORTHWEST AND NORTH CENTRAL SOUTH DAKOTA

CITY           SKY/WX    TMP DP  RH WIND       PRES   REMARKS
BUFFALO          N/A     78  52  40 E14       30.19F
FAITH            N/A     77  52  41 E10       30.24F
MOBRIDGE       MOSUNNY   76  51  41 NE10      30.22F
$$

SDZ012>016-024>037-041>051-057-063-072>074-290100-
SOUTHWEST AND SOUTH CENTRAL SOUTH DAKOTA

CITY           SKY/WX    TMP DP  RH WIND       PRES   REMARKS
RAPID CTY ARPT PTSUNNY   78  54  43 SE8       30.24F
PIERRE         SUNNY     79  52  38 NE7       30.21F
CUSTER         SUNNY     72  50  45 E10       30.36S
ELLSWORTH AFB  SUNNY     80  54  39 SE7       30.24S
PHILIP         SUNNY     81  49  32 E6        30.20F
PINE RIDGE     SUNNY     81  56  42 E10       30.21F
WINNER         FAIR      81  48  31 NE7       30.22F
$$

SDZ004>011-016>023-039-040-290100-
NORTHEAST SOUTH DAKOTA

CITY           SKY/WX    TMP DP  RH WIND       PRES   REMARKS
ABERDEEN       SUNNY     72  51  47 NE6       30.23F
WATERTOWN      PTSUNNY   69  49  48 N8        30.23F
SISSETON         N/A     71  55  56 N7        30.21F
$$

SDZ017-020-022-023-036>040-048>070-290100-
SOUTHEAST SOUTH DAKOTA

CITY           SKY/WX    TMP DP  RH WIND       PRES   REMARKS
SIOUX FALLS    MOSUNNY   72  54  53 N10       30.21F
HURON          MOSUNNY   73  51  46 N8        30.21F
CHAMBERLAIN    MOSUNNY   76  52  42 NE8       30.22F
MITCHELL       PTSUNNY   75  51  43 NE8       30.22F
YANKTON          N/A    N/A N/A N/A MISG        N/A
$$

ABBREVIATIONS USED IN REMARKS
   TC - TEMPERATURE IN CELSIUS
  WCI - WIND CHILL INDEX
   HX - HEAT INDEX
  VSB - VISIBILITY




USA.gov is the U.S. government's official web portal to all federal, state and local government web resources and services.